(431602) = 2007 VK211

Discovered at Kitt Peak on 2007-11-09 by Spacewatch.

Orbit

Orbit type: Main Belt

Note: WebGL enabled browser required.

epoch2023-09-13.0
epoch JD2460200.5
perihelion date2022-11-18.40156
perihelion JD2459901.90156
argument of perihelion (°)242.88718
ascending node (°)37.47480
inclination (°)11.11345
eccentricity0.0441017
perihelion distance (AU)3.0469202
Tisserand w.r.t. Jupiter3.2
ΔV w.r.t. Earth (km/sec)11.3
semimajor axis (AU)3.1874941
mean anomaly (°)51.71509
mean daily motion (°/day)0.17319280
aphelion distance (AU)3.328
period (years)5.69
P-vector [x]0.16971101
P-vector [y]-0.82211795
P-vector [z]-0.54343376
Q-vector [x]0.97849130
Q-vector [y]0.20619025
Q-vector [z]-0.00635214
absolute magnitude16.51
phase slope0.15
uncertainty0
referenceMPEC 2024-A158
observations used102
oppositions11
arc length (days)5883
first opposition used2007
last opposition used2023
residual rms (arc-secs)0.78
perturbers coarse indicatorM-v
perturbers precise indicator003Ek
first observation date used2007-11-05.0
last observation date used2023-12-14.0
computer nameMPCLINUX
Minimum Orbit Intersection Distances (in AU)
for orbit epoch: 2460200.5, reference: E2024-AF8
Mercury2.58613
Venus2.32992
Earth2.05011
Mars1.53418
Jupiter1.72491
Saturn5.80061
Uranus15.2389
Neptune26.5951

Observations

105 total observations over interval: 2007 11 05.20778 – 2023 12 14.06314
These data are available for download (format description).

Date (UT) J2000 RA J2000 Dec Magn Location Ref
2007 11 05.20778 03 39 14.07 +23 52 00.7 21.4 V 691 – Steward Observatory, Kitt Peak-Spacewatch MPS 312568
2007 11 05.22547 03 39 13.20 +23 52 01.5 21.2 V 691 – Steward Observatory, Kitt Peak-Spacewatch MPS 312568
2007 11 05.24316 03 39 12.15 +23 52 01.3 21.0 V 691 – Steward Observatory, Kitt Peak-Spacewatch MPS 312568
2007 11 09.16334 03 35 48.24 +23 52 26.2 21.0 V 691 – Steward Observatory, Kitt Peak-Spacewatch MPS 228392
2007 11 09.18098 03 35 47.26 +23 52 25.7 20.9 V 691 – Steward Observatory, Kitt Peak-Spacewatch MPS 228392
2007 11 09.20207 03 35 46.08 +23 52 25.8 20.5 V 691 – Steward Observatory, Kitt Peak-Spacewatch MPS 228392
2007 11 13.16051 03 32 13.38 +23 51 44.3 20.9 V 691 – Steward Observatory, Kitt Peak-Spacewatch MPS 228392
2007 11 13.17815 03 32 12.42 +23 51 43.7 20.6 V 691 – Steward Observatory, Kitt Peak-Spacewatch MPS 228392
2007 11 13.19579 03 32 11.41 +23 51 43.7 20.5 V 691 – Steward Observatory, Kitt Peak-Spacewatch MPS 228392
2007 12 16.08055 03 05 42.34 +23 20 53.1 21.2 V 691 – Steward Observatory, Kitt Peak-Spacewatch MPS 312568
2007 12 16.09736 03 05 41.74 +23 20 52.1 21.1 V 691 – Steward Observatory, Kitt Peak-Spacewatch MPS 312568
2007 12 16.11761 03 05 41.03 +23 20 51.3 21.2 V 691 – Steward Observatory, Kitt Peak-Spacewatch MPS 312568
2010 03 17.30000 13 32 33.40 -02 53 02.2 21.6 V 691 – Steward Observatory, Kitt Peak-Spacewatch MPS 346367
2010 03 17.31764 13 32 32.76 -02 52 59.7 21.3 V 691 – Steward Observatory, Kitt Peak-Spacewatch MPS 346367
2010 03 17.33528 13 32 32.14 -02 52 58.0 21.7 V 691 – Steward Observatory, Kitt Peak-Spacewatch MPS 346367
2010 04 10.33537 13 14 38.65 -02 02 34.4 20.6 V G96 – Mt. Lemmon Survey MPS 346367
2010 04 10.34192 13 14 38.32 -02 02 33.5 20.3 V G96 – Mt. Lemmon Survey MPS 346367
2010 04 10.34850 13 14 37.96 -02 02 32.9 20.4 V G96 – Mt. Lemmon Survey MPS 346367
2010 04 10.35514 13 14 37.64 -02 02 32.2 20.4 V G96 – Mt. Lemmon Survey MPS 346367
2012 09 26.35190 00 37 41.52 -05 27 07.7 21.4 V G96 – Mt. Lemmon Survey MPS 434158
2012 09 26.35821 00 37 41.19 -05 27 09.4 20.5 V G96 – Mt. Lemmon Survey MPS 434158
2012 09 26.36586 00 37 40.83 -05 27 10.3 21.8 V G96 – Mt. Lemmon Survey MPS 434158
2012 09 26.37294 00 37 40.47 -05 27 11.3 21.9 V G96 – Mt. Lemmon Survey MPS 434158
2012 10 06.346795 00 29 38.807 -05 49 24.18 20.9 i F51 – Pan-STARRS 1, Haleakala MPS 435179
2012 10 06.358925 00 29 38.190 -05 49 25.73 20.7 i F51 – Pan-STARRS 1, Haleakala MPS 435179
2013 11 29.39195 05 05 49.49 +32 27 02.4 21.2 V G96 – Mt. Lemmon Survey MPS 489994
2013 11 29.39803 05 05 49.10 +32 27 03.4 21.6 V G96 – Mt. Lemmon Survey MPS 489994
2013 11 29.40410 05 05 48.73 +32 27 03.9 21.2 V G96 – Mt. Lemmon Survey MPS 489994
2015 01 23.46029 10 34 51.353 +24 49 23.63 21.6 w F51 – Pan-STARRS 1, Haleakala MPS 567529
2015 01 23.47225 10 34 50.964 +24 49 27.25 21.6 w F51 – Pan-STARRS 1, Haleakala MPS 567529
2015 01 23.48434 10 34 50.549 +24 49 31.10 21.6 w F51 – Pan-STARRS 1, Haleakala MPS 567529
2015 03 17.24945 09 54 40.220 +27 23 31.97 21.4 w F51 – Pan-STARRS 1, Haleakala MPS 587136
2015 03 17.26250 09 54 39.736 +27 23 31.33 21.5 w F51 – Pan-STARRS 1, Haleakala MPS 587136
2015 03 17.27547 09 54 39.247 +27 23 30.64 21.5 w F51 – Pan-STARRS 1, Haleakala MPS 587136
2016 05 01.32405 14 39 38.60 -16 59 44.9 21.2 V W84 – Cerro Tololo-DECam MPS 790575
2016 05 01.32726 14 39 38.42 -16 59 44.9   W84 – Cerro Tololo-DECam MPS 790575
2016 05 01.33369 14 39 38.08 -16 59 44.5   W84 – Cerro Tololo-DECam MPS 790575
2016 05 01.33692 14 39 37.91 -16 59 44.4   W84 – Cerro Tololo-DECam MPS 790575
2016 05 02.37576 14 38 43.92 -16 59 05.2 21.1 V G96 – Mt. Lemmon Survey MPS 708231
2016 05 02.38081 14 38 43.67 -16 59 05.0 21.0 V G96 – Mt. Lemmon Survey MPS 708231
2016 05 02.38585 14 38 43.39 -16 59 04.9 20.9 V G96 – Mt. Lemmon Survey MPS 708231
2016 05 02.39090 14 38 43.07 -16 59 04.3 21.0 V G96 – Mt. Lemmon Survey MPS 708231
2016 05 03.37727 14 37 51.61 -16 58 17.1 21.1 V W84 – Cerro Tololo-DECam MPS 790575
2016 05 03.38043 14 37 51.45 -16 58 16.9   W84 – Cerro Tololo-DECam MPS 790575
2016 05 03.38360 14 37 51.29 -16 58 16.8   W84 – Cerro Tololo-DECam MPS 790575
2016 05 03.38679 14 37 51.11 -16 58 16.6   W84 – Cerro Tololo-DECam MPS 790576
2017 08 14.34903 20 48 43.843 -34 41 56.70 20.6 w F51 – Pan-STARRS 1, Haleakala MPS 812004
2017 08 14.35903 20 48 43.310 -34 41 57.43 20.7 w F51 – Pan-STARRS 1, Haleakala MPS 812004
2017 08 14.36901 20 48 42.803 -34 41 57.83 20.6 w F51 – Pan-STARRS 1, Haleakala MPS 812004
2017 08 14.37897 20 48 42.263 -34 41 58.65 20.8 w F51 – Pan-STARRS 1, Haleakala MPS 812004
2018 10 04.40972 02 01 04.280 +08 38 23.70 21.1 w F52 – Pan-STARRS 2, Haleakala MPS 923982
2018 10 04.42208 02 01 03.739 +08 38 22.66 21.2 w F52 – Pan-STARRS 2, Haleakala MPS 923982
2018 10 04.43445 02 01 03.168 +08 38 21.63 21.4 w F52 – Pan-STARRS 2, Haleakala MPS 923982
2018 10 04.44686 02 01 02.631 +08 38 20.41 21.1 w F52 – Pan-STARRS 2, Haleakala MPS 923982
2018 10 05.43669 02 00 19.11 +08 36 50.4 21.4 G G96 – Mt. Lemmon Survey MPS 923982
2018 10 05.44454 02 00 18.74 +08 36 49.1 21.2 G G96 – Mt. Lemmon Survey MPS 923982
2018 10 05.44967 02 00 18.52 +08 36 49.6 20.9 G G96 – Mt. Lemmon Survey MPS 923982
2018 10 05.45758 02 00 18.14 +08 36 48.0 21.4 G G96 – Mt. Lemmon Survey MPS 923982
2018 10 18.31051 01 50 05.12 +08 15 10.4 21.4 G G96 – Mt. Lemmon Survey MPS 931046
2018 10 18.31563 01 50 04.90 +08 15 10.0 21.8 G G96 – Mt. Lemmon Survey MPS 931046
2018 10 18.32074 01 50 04.62 +08 15 09.3 21.9 G G96 – Mt. Lemmon Survey MPS 931046
2018 10 18.32585 01 50 04.34 +08 15 09.2 22.1 G G96 – Mt. Lemmon Survey MPS 931046
2018 11 11.20916 01 31 16.22 +07 41 55.8 20.8 G G96 – Mt. Lemmon Survey MPS 952062
2018 11 11.21434 01 31 16.03 +07 41 55.7 21.2 G G96 – Mt. Lemmon Survey MPS 952062
2018 11 11.21952 01 31 15.79 +07 41 55.5 21.4 G G96 – Mt. Lemmon Survey MPS 952062
2019 12 02.36912 06 59 47.26 +35 13 47.2 21.0 G G96 – Mt. Lemmon Survey MPS 1089760
2019 12 02.37431 06 59 47.09 +35 13 48.6 21.0 G G96 – Mt. Lemmon Survey MPS 1089760
2019 12 02.37948 06 59 46.85 +35 13 49.8 21.2 G G96 – Mt. Lemmon Survey MPS 1089760
2019 12 02.38466 06 59 46.64 +35 13 50.9 21.3 G G96 – Mt. Lemmon Survey MPS 1089760
2021 02 17.583321 11 53 09.737 +14 08 38.04 21.06 w F51 – Pan-STARRS 1, Haleakala MPS 1371305
2021 02 17.594567 11 53 09.323 +14 08 40.76 21.19 w F51 – Pan-STARRS 1, Haleakala MPS 1371305
2021 02 17.605781 11 53 08.919 +14 08 43.61 21.13 w F51 – Pan-STARRS 1, Haleakala MPS 1371305
2021 02 17.617058 11 53 08.500 +14 08 46.24 21.02 w F51 – Pan-STARRS 1, Haleakala MPS 1371305
2021 03 06.340238 11 41 17.44 +15 15 28.9 20.75 G G96 – Mt. Lemmon Survey MPS 1371305
2021 03 06.345400 11 41 17.17 +15 15 31.3 21.11 G G96 – Mt. Lemmon Survey MPS 1371305
2021 03 06.350572 11 41 16.95 +15 15 32.4 21.21 G G96 – Mt. Lemmon Survey MPS 1371305
2021 03 06.355719 11 41 16.70 +15 15 33.0 20.93 G G96 – Mt. Lemmon Survey MPS 1371305
2021 03 18.268459 11 31 36.09 +15 51 27.4 22.13 G G96 – Mt. Lemmon Survey MPS 1381011
2021 03 18.274111 11 31 35.81 +15 51 28.4 21.46 G G96 – Mt. Lemmon Survey MPS 1381011
2021 03 18.279758 11 31 35.53 +15 51 29.0 21.49 G G96 – Mt. Lemmon Survey MPS 1381011
2021 03 18.285415 11 31 35.27 +15 51 29.3 20.93 G G96 – Mt. Lemmon Survey MPS 1381011
2021 04 06.418674 11 17 37.333 +16 10 06.30 21.72 w F51 – Pan-STARRS 1, Haleakala MPS 1399999
2021 04 06.444109 11 17 36.363 +16 10 05.60 21.63 w F51 – Pan-STARRS 1, Haleakala MPS 1399999
2021 04 06.456767 11 17 35.885 +16 10 05.42 21.78 w F51 – Pan-STARRS 1, Haleakala MPS 1399999
2021 04 15.258589 11 12 54.755 +16 00 01.45 21.26 w F51 – Pan-STARRS 1, Haleakala MPS 1399999
2021 04 15.270347 11 12 54.432 +16 00 00.42 21.58 w F51 – Pan-STARRS 1, Haleakala MPS 1400000
2021 04 15.282084 11 12 54.101 +15 59 59.05 21.27 w F51 – Pan-STARRS 1, Haleakala MPS 1400000
2021 04 15.293848 11 12 53.766 +15 59 57.78 21.18 w F51 – Pan-STARRS 1, Haleakala MPS 1400000
2023 07 22.547132 23 06 51.201 -21 21 26.94 21.35 w F51 – Pan-STARRS 1, Haleakala MPS 1935189
2023 07 22.558895 23 06 50.972 -21 21 30.02 21.30 w F51 – Pan-STARRS 1, Haleakala MPS 1935189
2023 07 22.570653 23 06 50.766 -21 21 32.92 21.29 w F51 – Pan-STARRS 1, Haleakala MPS 1935189
2023 07 22.582405 23 06 50.549 -21 21 35.90 21.32 w F51 – Pan-STARRS 1, Haleakala MPS 1935189
2023 07 29.539868 23 04 24.544 -21 51 59.40 21.76 w F51 – Pan-STARRS 1, Haleakala MPS 1935189
2023 07 29.561214 23 04 23.965 -21 52 05.16 21.71 w F51 – Pan-STARRS 1, Haleakala MPS 1935189
2023 07 29.571896 23 04 23.650 -21 52 08.07 21.76 w F51 – Pan-STARRS 1, Haleakala MPS 1935190
2023 09 11.389025 22 32 52.057 -24 25 18.56 20.98 w F51 – Pan-STARRS 1, Haleakala MPS 1967426
2023 09 11.398657 22 32 51.607 -24 25 18.85 20.98 w F51 – Pan-STARRS 1, Haleakala MPS 1967426
2023 09 11.408285 22 32 51.136 -24 25 19.28 20.95 w F51 – Pan-STARRS 1, Haleakala MPS 1967426
2023 10 18.228008 22 15 15.231 -23 08 31.23 21.52 w F51 – Pan-STARRS 1, Haleakala MPS 2012198
2023 10 18.238907 22 15 15.134 -23 08 28.13 21.66 w F51 – Pan-STARRS 1, Haleakala MPS 2012198
2023 10 18.249828 22 15 15.076 -23 08 25.12 21.65 w F51 – Pan-STARRS 1, Haleakala MPS 2012198
2023 10 18.260752 22 15 14.995 -23 08 22.13 21.56 w F51 – Pan-STARRS 1, Haleakala MPS 2012198
2023 12 14.04003 22 41 03.83 -16 25 20.9 22.2 r W84 – Cerro Tololo-DECam MPS 2111294
2023 12 14.05160 22 41 04.44 -16 25 14.7 22.4 r W84 – Cerro Tololo-DECam MPS 2111294
2023 12 14.06314 22 41 05.05 -16 25 08.7 22.2 r W84 – Cerro Tololo-DECam MPS 2111294